This is the latest recevied weather packets stored in our database for station/object K5KHP. If no packets are shown the sender has not sent any weather packets the latest 1 day(s).
| Time | Temp. | Humidity | Pressure | Rain* | Wind** | Luminosity | Snow |
|---|---|---|---|---|---|---|---|
| 1778038029 | 14.44° C | 87% | 1014.8 hPa | 0 mm | - | 0 W/m² | - |
| 1778037726 | 14.44° C | 86% | 1014.5 hPa | 0 mm | - | 0 W/m² | - |
| 1778037120 | 14.44° C | 86% | 1014.4 hPa | 0 mm | - | 0 W/m² | - |
| 1778036818 | 14.44° C | 85% | 1014.2 hPa | 0 mm | - | 0 W/m² | - |
| 1778036515 | 15° C | 85% | 1014.2 hPa | 0 mm | - | 0 W/m² | - |
| 1778036212 | 15° C | 84% | 1014 hPa | 0 mm | - | 0 W/m² | - |
| 1778035908 | 15° C | 84% | 1014.1 hPa | 0 mm | - | 0 W/m² | - |
| 1778035606 | 15° C | 83% | 1013.8 hPa | 0 mm | - | 1 W/m² | - |
| 1778035302 | 15° C | 82% | 1013.9 hPa | 0 mm | - | 2 W/m² | - |
| 1778034998 | 15.56° C | 82% | 1013.9 hPa | 0 mm | - | 3 W/m² | - |
| 1778034695 | 15.56° C | 80% | 1013.9 hPa | 0 mm | - | 8 W/m² | - |
| 1778034393 | 16.11° C | 79% | 1013.8 hPa | 0 mm | - | 10 W/m² | - |
| 1778034090 | 16.11° C | 78% | 1013.5 hPa | 0 mm | - | 12 W/m² | - |
| 1778033788 | 16.11° C | 77% | 1013.6 hPa | 0 mm | - | 16 W/m² | - |
| 1778033485 | 16.67° C | 76% | 1013.6 hPa | 0 mm | - | 18 W/m² | - |
| 1778033182 | 16.67° C | 76% | 1013.5 hPa | 0 mm | - | 21 W/m² | - |
| 1778032577 | 16.67° C | 77% | 1013.5 hPa | 0 mm | - | 29 W/m² | - |
| 1778032274 | 16.67° C | 77% | 1013.5 hPa | 0 mm | - | 35 W/m² | - |
| 1778031666 | 16.67° C | 76% | 1013.3 hPa | 0 mm | - | 47 W/m² | - |
| 1778031365 | 17.22° C | 74% | 1013.4 hPa | 0 mm | - | 62 W/m² | - |
| 1778031061 | 17.78° C | 73% | 1013.6 hPa | 0 mm | - | 104 W/m² | - |
| 1778030757 | 17.78° C | 73% | 1013.6 hPa | 0 mm | - | 115 W/m² | - |
| 1778030454 | 17.22° C | 73% | 1013.5 hPa | 0 mm | - | 129 W/m² | - |
| 1778030152 | 17.22° C | 73% | 1013.4 hPa | 0 mm | - | 153 W/m² | - |
| 1778029848 | 17.22° C | 73% | 1013.6 hPa | 0 mm | - | 160 W/m² | - |
* Rain latest hour (hover to see other rain measurements)
** Current wind speed in m/s (hover to see current wind gust speed)